This is the latest recevied weather packets stored in our database for station/object KF4PPJ. If no packets are shown the sender has not sent any weather packets the latest 10 day(s).
| Time | Temp. | Humidity | Pressure | Rain* | Wind** | Luminosity | Snow |
|---|---|---|---|---|---|---|---|
| 1777695835 | 15.56° C | 70% | 1018.1 hPa | 0 mm | - | 0 W/m² | - |
| 1777695532 | 15.56° C | 71% | 1018.2 hPa | 0 mm | - | 0 W/m² | - |
| 1777695230 | 16.11° C | 71% | 1018.1 hPa | 0 mm | - | 0 W/m² | - |
| 1777694927 | 15.56° C | 71% | 1018.2 hPa | 0 mm | - | 0 W/m² | - |
| 1777694624 | 15.56° C | 69% | 1018.1 hPa | 0 mm | - | 0 W/m² | - |
| 1777694320 | 15.56° C | 72% | 1018 hPa | 0 mm | - | 0 W/m² | - |
| 1777694017 | 15.56° C | 71% | 1017.8 hPa | 0 mm | - | 0 W/m² | - |
| 1777693714 | 15.56° C | 71% | 1017.8 hPa | 0 mm | - | 0 W/m² | - |
| 1777693413 | 16.11° C | 70% | 1017.8 hPa | 0 mm | - | 0 W/m² | - |
| 1777693110 | 16.11° C | 70% | 1017.7 hPa | 0 mm | - | 0 W/m² | - |
| 1777692808 | 16.11° C | 69% | 1017.6 hPa | 0 mm | - | 0 W/m² | - |
| 1777692504 | 16.11° C | 69% | 1017.4 hPa | 0 mm | - | 0 W/m² | - |
| 1777692200 | 16.67° C | 67% | 1017.4 hPa | 0 mm | - | 0 W/m² | - |
| 1777691898 | 16.67° C | 67% | 1017.5 hPa | 0 mm | - | 0 W/m² | - |
| 1777691596 | 16.67° C | 66% | 1017.5 hPa | 0 mm | - | 3 W/m² | - |
| 1777691294 | 17.22° C | 65% | 1017.3 hPa | 0 mm | - | 6 W/m² | - |
| 1777690992 | 17.22° C | 63% | 1017.2 hPa | 0 mm | - | 7 W/m² | - |
| 1777690689 | 17.78° C | 62% | 1017.4 hPa | 0 mm | - | 8 W/m² | - |
| 1777690387 | 18.33° C | 62% | 1017.3 hPa | 0 mm | - | 10 W/m² | - |
| 1777690085 | 18.89° C | 58% | 1017.2 hPa | 0 mm | - | 11 W/m² | - |
| 1777689782 | 19.44° C | 53% | 1017.1 hPa | 0 mm | - | 14 W/m² | - |
| 1777689480 | 19.44° C | 55% | 1017 hPa | 0 mm | - | 20 W/m² | - |
| 1777689178 | 20° C | 53% | 1017.2 hPa | 0 mm | - | 27 W/m² | - |
| 1777688875 | 20° C | 50% | 1017 hPa | 0 mm | - | 29 W/m² | - |
| 1777688570 | 20° C | 50% | 1016.8 hPa | 0 mm | - | 33 W/m² | - |
* Rain latest hour (hover to see other rain measurements)
** Current wind speed in m/s (hover to see current wind gust speed)